Terminal Aerodrome Forecast
Issued by NWS Wakefield, VA

Home | Current Version | Previous Version | Text Only | Print | Product List | Glossary On
Versions: 1 2 3 4 5 6 7 8 9 10 11 12 13 14 15 16 17 18 19 20 21 22 23 24 25 26 27 28 29 30 31 32 33 34 35 36 37
626
FTUS41 KAKQ 300834 AAA
TAFSBY
TAF AMD
KSBY 300834Z 3009/0106 03010KT 2SM -RA BR BKN006 OVC015
     FM301000 06011KT 3SM BR VCSH OVC004
     FM301500 06010KT P6SM OVC010
     FM301800 07007KT P6SM OVC015
     FM010000 07005KT 3SM BR OVC008=

USA.gov is the U.S. government's official web portal to all federal, state and local government web resources and services.